Location: Newark
(48.8833°N, 0.9236°W)
Time: 03:44:59
(UTC+00:00)

Transit 4A - Pass Details

Date: 25 November 2019
Orbit: 870 x 975 km, 66.8° (Epoch: 12 December)

Event Time Altitude Azimuth Distance (km) Brightness Sun altitude
Exits shadow 04:31:39 41° 356° (N) 1,271 8.5 -28.3°
Maximum altitude 04:33:23 55° 48° (NE) 1,053 8.3 -28.0°
Drops below altitude 10° 04:39:05 10° 126° (SE) 2,517 10.8 -27.0°
Sets 04:41:36 0° 131° (SE) 3,449 11.6 -26.6°
